Location: Newark
(12.4436°N, 0.6167°W)
Time: 09:39:06
(UTC+00:00)

Vanguard 2 - Pass Details

Date: 13 December 2019
Orbit: 553 x 2938 km, 32.9° (Epoch: 27 January)

Event Time Altitude Azimuth Distance (km) Brightness Sun altitude
Rises 04:34:18 0° 301° (WNW) 6,579 - -23.5°
Reaches altitude 10° 04:39:04 10° 308° (NW) 5,698 - -22.4°
Exits shadow 04:43:34 20° 317° (NW) 4,924 11.1 -21.4°
Maximum altitude 04:55:34 42° 14° (NNE) 3,623 10.8 -18.7°
Drops below altitude 10° 05:09:23 10° 80° (E) 4,853 12.5 -15.5°
Sets 05:13:01 0° 88° (E) 5,566 13.2 -14.7°
